www.pogodaiklimat.ru

Погода и климат >> Архив погоды >> Россия >> Коми >> Мутный Материк


ПОГОДА в Мутном Материке

  • Прогноз погоды в Мутном Материке
  • Монитор погоды в Мутном Материке

АРХИВ ПОГОДЫ в Мутном Материке

Время (UTC), дата Ветер
(напр.,м/с)
 
Видим.   Явления Облачность Т
(С)
Тd
(С)
f
(%)
Тe
(С)
Тes
(С)
Комфортность P
(гПа)
Po
(гПа)
Тmin
(С)
Tmax
(С)
R
(мм)
R24
(мм)
S
(см)
09 12.02 ЮЗ 7-11
{13}
50 км позёмок 10/9 300 м
[Frnb Ac As]
-5.5 -6.7 91 -14 -14 1010.3 1001.2
12 12.02 Ю 7-11
{12}
50 км позёмок 10/10 600 м
[Sc]
-4.6 -5.9 91 -13 -13 1009.9 1000.7
15 12.02 Ю 8-10
{10}
50 км в посл. час снег {метель} 10/9 330 м
[Frnb As op]
-3.7 -4.6 93 -12 -12 1009.0 1000.0 -3.7 0.2
18 12.02 ЮЗ 8-13
{13}
50 км позёмок {снег} 10/9 420 м
[Frnb As op]
1008.7 999.7
21 12.02 Ю 7
{13}
50 км позёмок {снег} 10/9 450 м
[Frnb As op]
-3.5 -4.7 91 -12 -12 1008.0 999.0
00 13.02 Ю 8 10 км слаб. снег {метель} 10/9 300 м
[Frnb As trans Ci sp]
-3.9 -4.6 95 -13 -13 1006.5 997.5
03 13.02 ЮЗ 7
{12}
50 км позёмок {снег} 10/9 360 м
[Frnb As op]
-3.5 -4.8 91 -12 -12 1005.2 996.2 -3.9 0.5 72
06 13.02 ЮЗ 6-11
{11}
10 км слаб. снег {метель} 10/9 360 м
[Frnb As op]
-3.2 -4.5 91 -11 -11 1004.1 995.1
09 13.02 ЮЗ 7-11
{11}
20 км слаб. снег {метель} 9/9 400 м
[Frnb As op]
-2.8 -4.3 89 -11 -11 1003.7 994.7
12 13.02 Ю 6
{11}
50 км позёмок 10/9 400 м
[Frnb As op]
-2.6 -4.2 89 -10 -10 1003.6 994.6
15 13.02 ЮЗ 7-10
{10}
20 км слаб. снег {метель} 10/9 360 м
[Frnb As op]
-2.4 -3.6 91 -10 -10 1003.4 994.4 -2.4 0.7
18 13.02 ЮЗ 5 50 км позёмок {снег} 10/9 400 м
[Frnb As op]
-2.0 -3.4 90 -9 -9 1003.0 994.1
21 13.02 ЮЗ 4 50 км 10/10 360 м
[St]
-2.1 -3.3 91 -8 -8 1002.1 993.2
00 14.02 Ю 2 10 км слаб. снег 10/10 210 м
[Frnb Ns]
-2.6 -3.1 96 -7 -7 1000.3 991.3
03 14.02 Ю 1 10 км слаб. снег 10/9 210 м
[Frnb As op]
-3.1 -3.6 96 -6 -6 999.0 990.1 -3.1 2 72
06 14.02 С 7-11
{12}
10 км слаб. снег {метель} 10/9 300 м
[Frnb As op]
-5.1 -5.8 95 -14 -14 1000.3 991.3 -5.1
09 14.02 С 7
{13}
20 км слаб. снег {метель} 10/9 400 м
[Frnb As op]
-7.2 -8.5 90 -16 -16 1004.3 995.2
12 14.02 С 5
{12}
50 км {снег, метель} 9/0
[Ac As Cs]
-12.6 -14.7 84 -21 -21 1008.7 999.4
15 14.02 СЗ 2 50 км 9/0
[Ac As]
-13.6 -15.5 86 -18 -18 1011.2 1001.8 -3.2 3
18 14.02 ЮЗ 2 50 км 10/10 840 м
[Sc]
-12.8 -14.7 86 -17 -17 1011.6 1002.2
21 14.02 ЮЗ 2 50 км 9/9 1110 м
[Sc]
-12.8 -14.5 87 -17 -17 1010.8 1001.4
00 15.02 ЮЗ 3 50 км 3/0
[Ac trans]
-15.2 -16.4 91 -22 -22 1009.6 1000.2
03 15.02 Ю 3 50 км 1/0
[Ac trans]
-16.7 -18.4 87 -24 -24 1008.2 998.7 -16.7 71
06 15.02 Ю 2 50 км 10/10 660 м
[Sc]
-13.8 -15.3 88 -19 -19 1006.0 996.6 -16.8
09 15.02 Ю 4 50 км 4/0
[Cs]
-10.9 -13.6 80 -18 -17 1003.7 994.5
12 15.02 Ю 5 50 км 6/0
[Cs]
-13.2 -16.3 77 -22 -22 1001.5 992.2
15 15.02 Ю 6 50 км позёмок 10/0 540 м
[As op]
-13.3 -15.3 85 -22 -22 999.7 990.4 -10.8
18 15.02 Ю 7-10
{11}
50 км позёмок 10/0 540 м
[As op]
-9.7 -11.9 84 -19 -19 997.7 988.6
21 15.02 Ю 6
{10}
50 км позёмок 10/9 400 м
[Frnb As op]
-9.2 -11.1 86 -18 -18 996.9 987.7
00 16.02 Ю 7-10
{11}
10 км слаб. снег {метель} 10/9 300 м
[Frnb As op]
-8.4 -10.4 85 -17 -17 996.1 987.1
03 16.02 Ю 8-11
{11}
10 км слаб. снег {метель} 10/9 360 м
[Frnb As op]
-9.1 -10.9 87 -19 -19 996.4 987.3 -13.3 0.3 73
06 16.02 Ю 7
{11}
20 км слаб. снег {метель} 10/9 420 м
[Frnb As op]
-9.8 -11.1 90 -19 -19 996.3 987.2
09 16.02 ЮЗ 6
{10}
10 км слаб. снег {метель} 10/9 360 м
[Frnb As op]
-9.4 -11.1 87 -18 -18 996.5 987.3
12 16.02 ЮЗ 5
{10}
20 км слаб. снег {метель} 10/9 400 м
[Frnb As op]
-9.2 -10.7 89 -17 -17 996.6 987.5
15 16.02 ЮЗ 4 50 км 10/9 360 м
[Frnb As op]
-8.9 -10.3 90 -16 -16 996.3 987.2 -8.9 0.3
18 16.02 ЮЗ 4 20 км слаб. снег 10/0
[As op]
-8.8 -9.8 92 -16 -16 994.8 985.7
21 16.02 Ю 3 10 км слаб. снег 9/0
[As op]
-8.2 -9.1 93 -14 -14 993.8 984.7
00 17.02 Ю 3 20 км слаб. снег 10/0
[As op]
-7.4 -8.3 93 -13 -13 991.3 982.3
03 17.02 Ю 3 20 км слаб. снег 10/0
[As op]
-8.1 -9.0 93 -14 -14 988.8 979.8 -9.0 0.7 74
06 17.02 Ю 3 20 км слаб. снег 10/0
[As op]
-8.6 -9.7 92 -15 -14 986.6 977.6
09 17.02 Ю 6 20 км слаб. снег {метель} 10/8 400 м
[Frnb As op]
-8.0 -9.7 88 -16 -16 984.8 975.9
12 17.02 ЮВ 4 20 км слаб. снег {метель} 10/9 400 м
[Frnb As op]
-8.3 -10.1 87 -15 -15 983.6 974.6
15 17.02 ЮВ 3 10 км слаб. снег 10/9 300 м
[Frnb As op]
-9.0 -10.3 90 -15 -15 983.2 974.2 -7.7 0.6
18 17.02 В 2 1000 м сильн. снег 10/10 200 м
[Frnb Ns]
-9.1 -10.2 92 -14 -14 983.2 974.2
21 17.02 СВ 2 1000 м сильн. снег 10/10 200 м
[Frnb Ns]
-8.9 -10.0 92 -13 -13 983.9 974.8
00 18.02 С 4 1000 м сильн. снег 10/10 200 м
[Frnb Ns]
-9.0 -10.1 92 -16 -16 985.6 976.6
03 18.02 С 6 2000 м снег 10/10 180 м
[Frnb Ns]
-9.3 -10.5 91 -18 -18 988.0 979.0 -9.4 7 77
06 18.02 С 7-12
{15}
4000 м слаб. снег {метель} 10/10 300 м
[Frnb Ns]
-11.1 -13.1 85 -20 -20 992.3 983.2 -11.1
09 18.02 С 7-12
{15}
4000 м слаб. снег {метель} 10/9 270 м
[Frnb As op]
-13.3 -15.9 81 -23 -23 997.4 988.1
12 18.02 С 4
{12}
50 км {снег, метель} 3/0
[Ac trans Ci fib]
-15.5 -19.8 70 -23 -23 1002.4 993.0
15 18.02 СЗ 5 50 км 1/0
[Ci fib]
-18.6 -21.1 81 -28 -28 1005.9 996.4 -9.3 2
18 18.02 З 2 50 км 1/0
[Cc]
-19.4 -21.3 85 -25 -25 1007.4 997.8
21 18.02 ЮЗ 3 50 км ясно -22.2 -24.4 82 -30 -30 1007.7 998.0
00 19.02 ЮЗ 4 50 км 9/0
[Cs]
-21.8 -24.0 82 -31 -31 опасность
обморожения
1007.1 997.4
03 19.02 ЮЗ 4 50 км 6/0
[Cs]
-22.2 -24.6 81 -32 -32 опасность
обморожения
1006.2 996.5 -22.7 74
06 19.02 ЮЗ 4 50 км 10/0
[Cs]
-19.8 -22.0 83 -29 -28 1004.6 995.0

 

Местоположение метеостанции Мутный Материк (Коми, Россия): широта 65.95 долгота 55.17 высота над уровнем моря 71 м.

В архиве по умолчанию представлена погода в Мутном Материке за последнюю неделю. Архивные данные за месяц целиком и за предыдущие месяцы, начиная с января 2011 года, Вы можете получить, выбрав интересующий диапазон дат из раскрывающегося списка и нажав кнопку "Ввод!".


*Определитесь, кто Вы:
робот инопланетянин человек

Внимание! Время в таблицах - всемирное. Для получения местного времени необходимо прибавить поправку, которая равна 3 ч.

Смотрите также архив погоды в соседних городах и на ближайших метеорологических станциях:

Погода в Усть-Усе (Коми, Россия) (79 км)
Погода в Усинске (Коми, Россия) (100 км)
Погода в Ижме (Коми, Россия) (120 км)
Погода в Окуневом Носу (Коми, Россия) (121 км)
Погода в Печоре (Коми, Россия) (128 км)
Погода в Усть-Цильме (Коми, Россия) (145 км)
Погода в Ираеле (Коми, Россия) (159 км)
Погода в Кедва-Воме (Коми, Россия) (206 км)
Погода в Хорей-Вере (Ненецкий АО, Россия) (207 км)
Погода в Нарьян-Маре (Ненецкий АО, Россия) (209 км)

Пояснения к столбцам:

Ветер - указаны скорость ветра в м/с - средняя за 10 мин, порывы в срок и между сроками (в фигурных скобках) и направление, откуда дует ветер: С - северный, СВ - северо-восточный, В - восточный, ЮВ - юго-восточный, Ю - южный, ЮЗ - юго-западный, З - западный, СЗ - северо-западный.
Видимость - горизонтальная дальность видимости в метрах или километрах. При видимости от 1 до 10 км при отсутствии осадков обычно наблюдается дымка, при ухудшении видимости до 1 км и менее - туман. В сухую погоду видимость может ухудшаться дымом, пылью или мглою.
Явления - указаны атмосферные явления, наблюдавшиеся в срок или в последний час перед сроком; фигурными скобками обозначены явления, наблюдавшиеся между сроками (за 1-3 часа до срока); квадратными скобками обозначены град или гололедные отложения с указанием их диаметра в мм.
Облачность - указаны через наклонную черту общая и нижняя облачность в баллах и высота нижней границы облаков в метрах; квадратными скобками обозначены формы облаков: Ci - перистые, Cs - перисто-слоистые, Cc - перисто-кучевые, Ac - высококучевые, As - высокослоистые, Sc - слоисто-кучевые, Ns - слоисто-дождевые, Cu - кучевые, Cb - кучево-дождевые. Подробнее классификацию облаков см. в Атласе облаков (PDF).
T - Температура воздуха - температура, измеренная на высоте 2 м над землей.
Td - Температура точки росы - температура, при понижении до которой содержащийся в воздухе водяной пар достигнет насыщения.
f - Относительная влажность воздуха - влажноcть воздуха, измеренная на высоте 2 м над землей.
Te - Эффективная температура - температура, которую ощущает одетый по сезону человек в тени. Характеристика душности погоды. При расчете учитывается влияние влажности воздуха и скорости ветра на теплоощущения человека.
Tes - Эффективная температура на солнце - температура, которую ощущает человек, с поправкой на солнечный нагрев. Характеристика знойности погоды. Зависит от высоты солнца над горизонтом, облачности и скорости ветра. Ночью, в пасмурную погоду, а также при ветре 12 м/с и более поправка равна нулю.
P - Атмосферное давление - приведенное к уровню моря атмосферное давление.
Po - Атмосферное давление - измеренное на уровне метеостанции атмосферное давление.
Tmin - Минимальная температура - минимум температуры воздуха на высоте 2 м над землей.
Tmax - Максимальная температура - максимум температуры воздуха на высоте 2 м над землей.
R - Количество осадков - Количество выпавших осадков за период времени, мм. При наведении курсора мыши на число - период времени, за который выпало указанное количество осадков.
R24 - Количество осадков - Количество выпавших осадков за 24 часа, мм.
S - Снежный покров - Высота снежного покрова, см. При наведении курсора мыши на число - состояние снежного покрова и степень покрытия местности в баллах.